Location: Capelle
(50.3413°N, 1.9974°E)
Time: 00:27:28
(UTC+00:00)

Daily predictions for brighter satellites

Satellite Brightness Start Highest point End
(mag) Time Altitude Azimuth Time Altitude Azimuth Time Altitude Azimuth
ALOS 2 3.8 00:03:10 22° SW 00:05:02 29° W 00:08:54 10° NNW
Cosmos 1726 Rocket 4.5 00:01:18 10° NNW 00:05:27 38° W 00:07:28 25° SW
Meteor 1-21 Rocket 4.2 00:04:23 26° S 00:07:37 82° E 00:13:20 10° NNE
PSLV R/B 3.6 00:05:56 10° NNE 00:10:10 66° ESE 00:12:10 30° S
ATLAS CENTAUR R/B 3.9 00:06:51 25° S 00:10:20 47° ESE 00:23:35 10° NE
BREEZE-M DEB (TANK) 2.5 00:08:13 10° WSW 00:13:57 46° SSE 00:16:27 10° E
Cosmos 1943 Rocket 3.4 00:09:47 10° NNW 00:14:56 38° NE 00:20:03 10° ESE
Cosmos 389 Rocket 4.4 00:13:22 10° NW 00:15:45 18° W 00:16:39 16° WSW
FALCON 9 DEB 3.8 00:17:16 32° SE 00:17:16 32° SE 00:19:46 10° E
Cosmos 2219 Rocket 3.0 00:13:12 12° SW 00:18:21 48° NW 00:23:52 10° NNE
SL-16 R/B 3.5 00:16:09 17° SSE 00:19:09 27° ESE 00:23:49 10° NE
Cosmos 1464 Rocket 4.4 00:13:11 10° NNW 00:19:20 55° W 00:23:11 23° SSW
Cosmos 1892 Rocket 4.3 00:17:34 23° SW 00:19:57 45° WNW 00:24:14 10° N
FALCON 9 DEB 3.2 00:20:01 42° SSE 00:20:01 42° SSE 00:22:57 10° ENE
FALCON 9 DEB 3.1 00:17:15 14° WSW 00:20:04 82° NNW 00:23:30 10° ENE
Cosmos 1184 Rocket 3.1 00:19:34 35° SW 00:20:37 55° WNW 00:23:50 10° N
BREEZE-M DEB (TANK) 3.3 00:19:10 10° W 00:23:06 85° S 00:36:13 10° E
EO 1 Del DPAF 3.2 00:22:17 10° NNE 00:25:59 67° ESE 00:27:29 33° S
Cosmos 2237 Rocket 2.2 00:23:36 25° SSW 00:26:56 76° ESE 00:32:35 10° NNE
FALCON 9 DEB 3.1 00:27:24 45° SSE 00:27:36 45° SSE 00:30:36 10° ENE
Cosmos 1634 Rocket 4.2 00:24:31 10° N 00:30:49 70° ENE 00:35:39 18° SSE
NOSS 0 Rocket 4.0 00:27:33 21° SSW 00:31:54 84° WNW 00:38:12 10° NNE
Aureole 3 3.4 00:29:58 10° N 00:33:10 57° ENE 00:35:07 25° SSE
SJ 16-02 2.2 00:29:05 10° NNW 00:33:21 47° ENE 00:37:13 12° SE
ATLAS 3B R/B 3.2 00:27:39 10° WSW 00:34:09 58° NW 00:40:56 10° NE
SL-4 R/B 3.4 00:34:55 19° SE 00:34:55 19° SE 00:37:21 10° E
USA 215 4.0 00:29:36 10° ENE 00:35:56 54° N 00:42:17 10° W
Lacrosse 5 rocket 1.5 00:33:18 12° WSW 00:36:30 58° NNW 00:40:04 10° NE
COSMOS 2428 3.7 00:32:45 11° WSW 00:38:02 43° NW 00:43:32 10° NNE
Cosmos 2369 Rocket 3.8 00:32:51 10° NNW 00:38:03 34° NE 00:43:14 10° ESE
Cosmos 2360 Rocket 4.4 00:34:15 10° W 00:38:27 21° NW 00:42:39 10° N
Elektron 1 3.6 00:40:33 10° NW 00:43:35 66° SW 00:44:54 29° SSE
Cosmos 1455 4.2 00:41:12 10° NW 00:43:47 17° W 00:45:10 15° WSW
CZ-2D R/B 3.4 00:43:05 10° NNE 00:47:40 30° E 00:51:29 13° SSE
Cosmos 2297 3.8 00:43:31 10° NNW 00:49:11 76° ENE 00:54:50 10° SE
Cosmos 1825 4.4 00:48:02 10° SE 00:50:34 18° E 00:53:08 10° NE
ATLAS CENTAUR R/B 3.7 00:49:27 10° W 00:51:08 12° WSW 00:51:19 12° WSW
Resurs 1-4 Rocket 3.3 00:47:59 10° NNE 00:52:48 34° E 00:56:44 14° SSE
Cosmos 1626 Rocket 3.9 00:51:32 25° SSW 00:53:58 57° WNW 00:58:23 10° N
Cosmos 1777 Rocket 4.1 00:49:46 10° NNW 00:55:00 62° WSW 00:58:24 22° S
Cosmos 2278 Rocket 3.2 00:51:00 10° NW 00:55:50 30° WSW 00:58:22 21° SW
SL-16 R/B 3.1 00:51:52 10° SE 00:57:56 59° ENE 01:04:01 10° N
Cosmos 1602 Rocket 3.7 00:56:13 26° SSW 00:58:41 70° WNW 01:03:12 10° N
Cosmos 1607 4.4 00:57:59 10° NW 01:04:00 43° WSW 01:08:06 19° S
Cosmos 1758 Rocket 3.6 01:02:35 25° S 01:05:12 86° E 01:09:41 10° N
YAOGAN 11 4.2 01:03:08 24° S 01:05:40 62° WSW 01:10:07 10° NNW
Tsikada Rocket 4.3 01:07:49 20° SSW 01:12:09 55° WNW 01:18:14 10° N
OPS 6432 4.5 01:09:53 10° NW 01:12:50 68° NE 01:16:17 10° SE
GENESIS II 4.3 01:11:02 22° SW 01:13:28 72° NW 01:17:23 10° NE
ADEOS II 3.7 01:14:02 10° NE 01:18:32 28° E 01:22:59 10° SSE
Cosmos 2142 Rocket 4.4 01:13:01 10° NNW 01:19:09 78° W 01:24:06 16° S
ADEOS Rocket 4.1 01:16:01 10° SE 01:23:13 54° ENE 01:29:51 10° N
Cosmos 724 4.4 01:17:34 10° NW 01:23:43 65° WSW 01:29:40 10° SSE
Cosmos 1898 Rocket 4.1 01:21:27 10° NNW 01:26:40 57° ENE 01:31:48 10° SE
FALCON 9 DEB 2.8 01:24:33 18° WSW 01:26:44 88° NNW 01:29:53 10° ENE
In-Cosmos 22 Rocket 4.2 01:25:47 18° S 01:30:05 82° E 01:35:39 10° NNE
Cosmos 2333 Rocket 4.5 01:28:04 10° W 01:32:08 19° NW 01:36:11 10° N
Helios 1A 3.8 01:33:30 21° SSW 01:35:41 34° W 01:39:31 10° NNW
Cosmos 990 Rocket 4.1 01:31:03 10° NNW 01:36:17 81° ENE 01:41:28 10° SSE
Cosmos 1937 Rocket 4.3 01:32:45 10° NNW 01:37:59 53° ENE 01:43:11 10° SE
Cosmos 1892 2.8 01:36:25 21° SSW 01:38:52 69° WNW 01:42:45 10° N
Cosmos-2242 3.9 01:38:58 10° NNW 01:42:59 35° W 01:45:37 18° SSW
Cosmos 2058 3.5 01:41:08 14° S 01:44:32 52° E 01:48:32 10° NNE
AQUA 4.2 01:40:15 10° NNE 01:44:58 58° E 01:49:06 13° S
IDEFIX/ARIANE 42P 4.3 01:41:11 10° NE 01:45:34 26° E 01:49:55 10° SSE
UNK 3.7 01:44:16 13° S 01:48:16 68° WSW 01:52:53 10° NNW
Cosmos 1408 2.7 01:47:38 20° SSW 01:50:01 61° WNW 01:53:40 10° N
FALCON 9 DEB 3.2 01:49:22 10° W 01:52:30 66° NNW 01:55:37 10° ENE
FALCON 9 DEB 3.4 01:52:30 10° W 01:55:34 59° NNW 01:58:38 10° ENE
Helios 1B rocket 2.4 01:52:15 10° NNE 01:56:23 89° E 01:59:41 16° SSW
FALCON 9 DEB 4.0 01:53:50 10° WNW 01:57:11 52° N 02:00:31 10° E
USA 229 DEB 4.0 01:53:01 14° SSW 01:58:20 54° ESE 02:04:59 10° NE
USA 229 4.0 01:53:05 14° SSW 01:58:24 53° ESE 02:05:02 10° NE
Cosmos 1943 Rocket 2.5 01:53:34 10° NW 01:58:46 44° WSW 02:03:57 10° S
Cosmos 405 Rocket 2.6 01:56:34 17° SSW 01:59:21 83° W 02:03:04 10° N
Cosmos 1356 3.7 01:59:43 18° SSW 02:02:01 52° WNW 02:05:22 10° N
NPP 3.7 01:57:17 10° NNE 02:02:43 85° WNW 02:07:33 13° SSW
SL-16 R/B 2.5 01:58:01 14° SW 02:02:54 61° NW 02:08:32 10° NNE
FALCON 9 DEB 3.5 02:00:09 10° W 02:03:13 57° N 02:06:18 10° ENE
Cosmos 2098 Rocket 3.9 01:58:02 10° S 02:04:22 76° E 02:09:29 10° NNE
SL-19 R/B 4.2 02:02:42 10° NNE 02:07:57 84° ESE 02:12:58 12° SSW
Cosmos 1076 Rocket 4.3 02:04:50 10° SSE 02:08:53 47° E 02:12:59 10° NNE
NOSS 3-1 (C) 3.3 02:06:10 14° SW 02:10:58 87° SE 02:17:28 10° NE
Cosmos 2237 Rocket 3.8 02:06:55 10° W 02:11:36 26° NW 02:16:18 10° NNE
SJ 16-02 2.7 02:08:15 10° NW 02:11:37 22° W 02:14:10 14° SW
Cosmos 2221 2.5 02:07:48 10° NNW 02:12:07 70° W 02:16:23 10° S
Cosmos 468 Rocket 4.0 02:08:13 13° SSW 02:12:47 83° ESE 02:18:02 10° NNE
SL-4 R/B 1.6 02:10:26 12° WSW 02:13:49 69° SSE 02:17:18 10° ENE
Lacrosse 5 rocket 3.0 02:12:56 10° WNW 02:16:06 28° N 02:19:18 10° ENE
NOSS 3-1 (A) 3.6 02:13:03 13° SSW 02:17:53 62° SE 02:24:10 10° NE
NOSS 2-3 (E) 3.6 02:14:20 14° SW 02:17:58 84° SE 02:23:00 10° NE
USA 215 4.2 02:12:08 10° E 02:18:27 53° N 02:24:45 10° WNW
Cosmos 1437 3.6 02:16:19 10° N 02:19:01 43° ENE 02:21:42 10° SSE
Cosmos 2263 4.2 02:14:09 10° NNW 02:19:52 75° WSW 02:25:30 10° SSE
NOSS 8 (E) 4.2 02:17:23 15° SW 02:19:58 71° SE 02:22:56 10° NE
Lacrosse 4 Rocket 3.6 02:17:26 10° NNW 02:21:09 31° NE 02:24:48 10° ESE
Cosmos 2369 Rocket 2.4 02:16:47 10° NW 02:22:22 55° WSW 02:27:55 10° S
Cosmos 1242 Rocket 2.4 02:21:19 10° NNW 02:24:53 79° W 02:28:28 10° S
Cosmos 1825 2.8 02:22:36 13° SW 02:25:44 42° WNW 02:29:22 10° N
X-37B 2.4 02:24:15 13° SSW 02:26:00 18° SSE 02:28:17 10° ESE
ATLAS 3B R/B 4.5 02:20:30 10° WNW 02:26:15 29° NNW 02:32:12 10° NE
Cosmos 2151 4.1 02:22:27 10° SSE 02:26:25 41° E 02:30:24 10° NNE
Cosmos 1437 Rocket 3.3 02:23:29 10° NNW 02:27:14 41° W 02:30:54 10° SSW
CZ-2D R/B 2.7 02:22:54 10° N 02:27:54 46° WNW 02:32:48 10° SW
Meteor 1-29 3.0 02:28:27 10° N 02:31:52 65° WNW 02:35:11 10° SSW
Resurs 1-4 Rocket 2.8 02:27:44 10° N 02:32:43 42° WNW 02:37:41 10° SW
Cosmos 372 Rocket 4.1 02:29:51 10° NNW 02:35:06 86° ENE 02:40:22 10° SSE
IRS-1D 3.6 02:32:56 10° NNE 02:38:12 88° WNW 02:43:19 10° SSW
SeaSat 1 2.7 02:33:30 10° NE 02:38:26 68° ESE 02:43:21 10° SSW
Cosmos 1763 Rocket 3.6 02:34:41 10° SW 02:39:41 63° WNW 02:44:47 10° NNE
SL-16 R/B 3.5 02:36:34 10° SSW 02:41:54 30° W 02:47:15 10° NW
Cosmos 1842 Rocket 4.3 02:39:31 10° NNW 02:43:29 35° W 02:47:27 10° SSW
Cosmos 1553 Rocket 4.5 02:37:33 10° N 02:43:55 67° ENE 02:50:09 10° SSE
Cosmos 1633 2.4 02:43:54 10° SSW 02:47:24 81° W 02:50:57 10° N
CBERS-1 4.1 02:43:11 10° NNE 02:48:21 89° WNW 02:53:30 10° SSW
Cosmos 1606 3.2 02:45:37 10° NNW 02:49:18 42° W 02:52:55 10° SSW
USA 281 3.4 02:46:21 10° S 02:52:46 55° WSW 02:59:14 10° NNW
Cosmos 1656 Rocket 4.0 02:48:26 10° NW 02:53:54 49° WSW 02:59:19 10° S
Exosat Rocket 4.4 02:47:53 10° SW 02:54:39 53° WNW 02:59:53 10° NNE
Alouette 2 Rocket 4.4 02:51:38 10° N 02:55:16 45° ENE 02:58:45 10° SE
CZ-2C R/B 4.3 02:52:13 10° NNE 02:56:36 29° E 03:00:51 10° SSE
ADEOS II 2.5 02:53:23 10° N 02:58:29 51° WNW 03:03:32 10° SW
NOSS 2-3 (D) 4.1 02:54:17 10° WSW 02:58:29 57° NW 03:03:34 10° NE
CZ-3B R/B 2.2 02:53:12 10° WNW 02:59:25 70° NNE 03:01:55 10° ESE
CZ-4C R/B 3.3 02:56:15 10° S 02:59:40 49° W 03:03:03 10° NNW
Cosmos 1782 3.6 02:56:22 10° N 03:00:19 55° ENE 03:04:15 10° SSE
